Location: Unspecified
(40.7945°N, 0.0000°E)
Time: 19:24:24
(UTC+00:00)

Explorer 7 - Pass Details

Date: 19 June 2021
Orbit: 484 x 676 km, 50.3° (Epoch: 28 July)

Event Time Altitude Azimuth Distance (km) Brightness Sun altitude
Rises 01:30:21 0° 302° (WNW) 2,974 10.7 -22.5°
Reaches altitude 10° 01:32:58 10° 312° (NW) 2,036 9.9 -22.3°
Maximum altitude 01:37:10 32° 16° (NNE) 1,076 8.9 -22.0°
Drops below altitude 10° 01:41:09 10° 79° (E) 1,928 10.0 -21.7°
Sets 01:43:33 0° 90° (E) 2,791 10.8 -21.5°
